This demonstration page uses our WeatherBlox Daily Observations layout. Learn more.

Left ArrowRight Arrow

Hourly Observations for February 27, 2019

Temp ( °F °C ) Dew Point ( °F °C ) Humidity (%) Winds ( mph kmh ) Pressure ( in mb ) Visibility ( mi km ) Precip ( " mm )
12:15 am 00:15 Clear 27 -3 27 -3 100 100 E 6 9 30.30 1026 10 16 N/A
12:36 am 00:36 Clear 27 -3 27 -3 100 100 ESE 6 9 30.29 1026 10 16 N/A
12:55 am 00:55 Clear 27 -3 27 -3 100 100 E 5 7 30.29 1026 10 16 N/A
12:56 am 00:56 Clear 27 -3 27 -3 100 100 E 6 9 30.29 1026 10 16 N/A
1:15 am 01:15 Clear 27 -3 27 -3 100 100 E 7 11 30.27 1025 10 16 N/A
1:35 am 01:35 Clear 28 -2 27 -3 93 93 ESE 7 11 30.25 1024 10 16 N/A
1:36 am 01:36 Clear 28 -2 27 -3 93 93 ESE 7 11 30.25 1024 10 16 N/A
1:55 am 01:55 Clear 28 -2 27 -3 93 93 SE 9 15 30.23 1024 10 16 N/A
2:15 am 02:15 Clear 28 -2 27 -3 93 93 SE 9 15 30.22 1023 10 16 N/A
2:35 am 02:35 Clear 28 -2 27 -3 93 93 SE 8 13 30.21 1023 10 16 N/A
2:36 am 02:36 Clear 28 -2 27 -3 93 93 SE 8 13 30.21 1023 10 16 N/A
2:55 am 02:55 Clear 28 -2 27 -3 93 93 SE 10 17 30.18 1022 10 16 N/A
3:15 am 03:15 Clear 28 -2 27 -3 93 93 ESE 6 9 30.21 1023 10 16 N/A
3:16 am 03:16 Clear 28 -2 27 -3 93 93 E 6 9 30.21 1023 10 16 N/A
3:35 am 03:35 Clear 28 -2 27 -3 93 93 NNE 5 7 30.21 1023 10 16 N/A
3:36 am 03:36 Clear 28 -2 27 -3 93 93 N 5 7 30.21 1023 10 16 N/A
3:55 am 03:55 Clear 27 -3 27 -3 100 100 N 6 9 30.22 1023 10 16 N/A
4:15 am 04:15 Clear 27 -3 27 -3 100 100 ENE 3 6 30.21 1023 10 16 N/A
4:16 am 04:16 Clear 27 -3 27 -3 100 100 ENE 3 6 30.21 1023 10 16 N/A
4:35 am 04:35 Clear 27 -3 27 -3 100 100 E 3 6 30.20 1023 10 16 N/A
4:36 am 04:36 Clear 27 -3 27 -3 100 100 E 3 6 30.20 1023 10 16 N/A
4:55 am 04:55 Clear 27 -3 27 -3 100 100 E 5 7 30.19 1022 10 16 N/A
5:15 am 05:15 Clear 27 -3 27 -3 100 100 E 6 9 30.19 1022 10 16 N/A
5:16 am 05:16 Clear 27 -3 27 -3 100 100 E 6 9 30.19 1022 10 16 N/A
5:35 am 05:35 Clear 27 -3 27 -3 100 100 ESE 6 9 30.18 1022 10 16 N/A
5:36 am 05:36 Clear 27 -3 27 -3 100 100 ESE 6 9 30.18 1022 10 16 N/A
5:55 am 05:55 Mostly Cloudy 28 -2 27 -3 93 93 NE 3 6 30.18 1022 10 16 N/A
6:15 am 06:15 Cloudy 28 -2 28 -2 100 100 E 6 9 30.18 1022 10 16 N/A
6:16 am 06:16 Cloudy 28 -2 28 -2 100 100 E 5 7 30.18 1022 10 16 N/A
6:35 am 06:35 Mostly Cloudy 27 -3 27 -3 100 100 ENE 5 7 30.19 1022 10 16 N/A
6:55 am 06:55 Mostly Cloudy 27 -3 27 -3 100 100 ESE 5 7 30.18 1022 10 16 N/A
7:15 am 07:15 Mostly Cloudy 28 -2 28 -2 100 100 SSE 5 7 30.16 1021 10 16 N/A
7:16 am 07:16 Mostly Cloudy 28 -2 28 -2 100 100 SE 5 7 30.16 1021 10 16 N/A
7:35 am 07:35 Cloudy 28 -2 28 -2 100 100 SE 3 6 30.16 1021 10 16 N/A
7:55 am 07:55 Cloudy 30 -1 28 -2 93 93 SE 7 11 30.15 1021 10 16 N/A
8:15 am 08:15 Cloudy 30 -1 28 -2 93 93 SE 6 9 30.15 1021 10 16 N/A
8:16 am 08:16 Cloudy 30 -1 28 -2 93 93 SE 7 11 30.15 1021 10 16 N/A
8:35 am 08:35 Cloudy 30 -1 28 -2 93 93 SE 6 9 30.15 1021 10 16 N/A
8:55 am 08:55 Cloudy 30 -1 28 -2 93 93 SE 6 9 30.15 1021 10 16 N/A
8:56 am 08:56 Cloudy 30 -1 28 -2 93 93 SE 6 9 30.15 1021 10 16 N/A
9:15 am 09:15 Cloudy 32 undefined 28 -2 87 87 SE 6 9 30.14 1020 10 16 N/A
9:35 am 09:35 Cloudy 32 undefined 28 -2 87 87 SSE 8 13 30.13 1020 10 16 N/A
9:55 am 09:55 Cloudy 32 undefined 30 -1 93 93 S 8 13 30.12 1020 10 16 N/A
9:56 am 09:56 Cloudy 32 undefined 30 -1 93 93 S 8 13 30.12 1020 10 16 N/A
10:15 am 10:15 Cloudy 32 undefined 30 -1 93 93 S 6 9 30.12 1020 10 16 N/A
10:16 am 10:16 Cloudy 32 undefined 30 -1 93 93 S 7 11 30.12 1020 10 16 N/A
10:35 am 10:35 Cloudy 34 1 30 -1 87 87 S 6 9 30.10 1019 10 16 N/A
10:55 am 10:55 Cloudy 34 1 30 -1 87 87 S 7 11 30.10 1019 10 16 N/A
10:56 am 10:56 Cloudy 34 1 30 -1 87 87 S 7 11 30.10 1019 10 16 N/A
11:15 am 11:15 Cloudy 36 2 30 -1 81 81 S 7 11 30.09 1019 10 16 N/A
11:16 am 11:16 Cloudy 36 2 30 -1 81 81 S 6 9 30.09 1019 10 16 N/A
11:35 am 11:35 Cloudy 37 3 32 undefined 81 81 SSW 6 9 30.08 1019 10 16 N/A
11:55 am 11:55 Cloudy 39 4 32 undefined 75 75 SW 8 13 30.08 1019 10 16 N/A
11:56 am 11:56 Cloudy 39 4 32 undefined 75 75 SW 8 13 30.08 1019 10 16 N/A
12:15 pm 12:15 Cloudy 41 5 32 undefined 70 70 SW 9 15 30.08 1019 10 16 N/A
12:35 pm 12:35 Cloudy 41 5 34 1 76 76 SW 6 9 30.08 1019 10 16 N/A
12:55 pm 12:55 Cloudy 45 7 36 2 71 71 WSW 14 22 30.07 1018 10 16 N/A
12:56 pm 12:56 Cloudy 45 7 34 1 66 66 W 13 20 30.07 1018 10 16 N/A
1:15 pm 13:15 Cloudy 45 7 34 1 66 66 W 15 24 30.07 1018 10 16 N/A
1:35 pm 13:35 Cloudy 46 8 36 2 66 66 WNW 13 20 30.06 1018 10 16 N/A
1:56 pm 13:56 Cloudy 46 8 36 2 66 66 WNW 10 17 30.05 1018 10 16 N/A
2:15 pm 14:15 Cloudy 46 8 36 2 66 66 W 10 17 30.05 1018 10 16 N/A
2:35 pm 14:35 Cloudy 48 9 36 2 62 62 WNW 10 17 30.04 1017 10 16 N/A
2:55 pm 14:55 Mostly Cloudy 48 9 36 2 62 62 WNW 10 17 30.02 1017 10 16 N/A
2:56 pm 14:56 Mostly Cloudy 48 9 36 2 62 62 WNW 10 17 30.02 1017 10 16 N/A
3:15 pm 15:15 Mostly Cloudy 48 9 36 2 62 62 NW 8 13 30.02 1017 10 16 N/A
3:35 pm 15:35 Cloudy 46 8 36 2 66 66 NNW 9 15 30.05 1018 10 16 N/A
3:36 pm 15:36 Cloudy 46 8 36 2 66 66 NW 10 17 30.05 1018 10 16 N/A
3:55 pm 15:55 Cloudy 43 6 36 2 76 76 NW 13 20 30.06 1018 10 16 N/A
3:56 pm 15:56 Cloudy 43 6 36 2 76 76 NW 13 20 30.06 1018 10 16 N/A
4:15 pm 16:15 Cloudy 43 6 36 2 76 76 NW 10 17 30.07 1018 10 16 N/A
4:35 pm 16:35 Cloudy 41 5 34 1 76 76 WNW 15 24 30.08 1019 10 16 N/A
4:36 pm 16:36 Cloudy 41 5 34 1 76 76 WNW 16 26 30.09 1019 10 16 N/A
4:55 pm 16:55 Cloudy 39 4 34 1 81 81 NNW 14 22 30.09 1019 10 16 N/A
4:56 pm 16:56 Cloudy 39 4 34 1 81 81 NW 12 19 30.09 1019 10 16 N/A
5:15 pm 17:15 Cloudy 39 4 34 1 81 81 NNW 15 24 30.10 1019 10 16 N/A
5:35 pm 17:35 Cloudy 37 3 34 1 87 87 NNW 14 22 30.11 1020 10 16 N/A
5:36 pm 17:36 Cloudy 37 3 34 1 87 87 NNW 14 22 30.11 1020 10 16 N/A
5:55 pm 17:55 Cloudy 36 2 32 undefined 87 87 NW 12 19 30.13 1020 10 16 N/A
5:56 pm 17:56 Cloudy 36 2 32 undefined 87 87 NW 12 19 30.13 1020 10 16 N/A
6:15 pm 18:15 Cloudy 36 2 32 undefined 87 87 NW 13 20 30.14 1021 10 16 N/A
6:35 pm 18:35 Cloudy 36 2 32 undefined 87 87 NW 12 19 30.15 1021 10 16 N/A
6:36 pm 18:36 Cloudy 36 2 32 undefined 87 87 NW 12 19 30.15 1021 10 16 N/A
6:55 pm 18:55 Cloudy 34 1 32 undefined 93 93 NW 13 20 30.15 1021 10 16 N/A
6:56 pm 18:56 Cloudy 34 1 32 undefined 93 93 NW 12 19 30.15 1021 10 16 N/A
7:15 pm 19:15 Cloudy 34 1 30 -1 87 87 NW 12 19 30.16 1021 10 16 N/A
7:35 pm 19:35 Cloudy 34 1 30 -1 87 87 NW 14 22 30.17 1022 10 16 N/A
7:36 pm 19:36 Cloudy 34 1 30 -1 87 87 NW 14 22 30.17 1022 10 16 N/A
7:55 pm 19:55 Cloudy 32 undefined 30 -1 93 93 NW 10 17 30.18 1022 10 16 N/A
8:15 pm 20:15 Cloudy 32 undefined 30 -1 93 93 NW 10 17 30.19 1022 10 16 N/A
8:35 pm 20:35 Cloudy 32 undefined 28 -2 87 87 NW 12 19 30.19 1022 10 16 N/A
8:36 pm 20:36 Cloudy 32 undefined 28 -2 87 87 NW 10 17 30.19 1022 10 16 N/A
8:55 pm 20:55 Cloudy 32 undefined 28 -2 87 87 NW 15 24 30.19 1022 10 16 N/A
9:15 pm 21:15 Cloudy 30 -1 28 -2 93 93 NW 16 26 30.19 1022 10 16 N/A
9:35 pm 21:35 Cloudy 30 -1 28 -2 93 93 NNW 14 22 30.19 1022 10 16 N/A
9:36 pm 21:36 Cloudy 30 -1 28 -2 93 93 NNW 15 24 30.19 1022 10 16 N/A
9:55 pm 21:55 Cloudy 30 -1 28 -2 93 93 NNW 13 20 30.19 1022 10 16 N/A
10:15 pm 22:15 Cloudy 28 -2 27 -3 93 93 NNW 10 17 30.20 1023 10 16 N/A
10:35 pm 22:35 Cloudy 28 -2 27 -3 93 93 NNW 13 20 30.20 1023 10 16 N/A
10:36 pm 22:36 Cloudy 28 -2 27 -3 93 93 NW 14 22 30.21 1023 10 16 N/A

Powered by AerisWeather